User: anonymous   Login
Location: Unspecified
(0.0000°N, 0.0000°E)
Time: 04:56:19
(UTC+01:00)
Language:

Cosmos 1515 Rocket - Orbit

View from above orbital plane
View from above orbital plane
View from above satellite
View from above satellite

Ground track
Ground track

The orbit data is extracted from the following two-line orbital elements,

1 14552U 83122B   14352.57108537  .00000659  00000-0  78045-4 0   498
2 14552 082.5235 209.8648 0015791 285.0102 102.7660 14.83015186674053
Epoch (UTC): 18 December 2014 13:42:21
Eccentricity: 0.0015791
inclination: 82.5235°
perigee height: 609 km
apogee height: 631 km
right ascension of ascending node: 209.8648°
argument of perigee: 285.0102°
revolutions per day: 14.83015186
mean anomaly at epoch: 102.7660°
orbit number at epoch: 67405

The dashed part of the orbit path shows where the satellite is in the earth's shadow,  

DLR